Midland, TX

12:22 PM CST on February 20, 2017 (GMT -0600)
Midland

Weather History for KMDD - August, 2013

Change the Weather History Date:

Friday, August 23, 2013

  Actual Average (KMAF) Record (KMAF)
Temperature  
Mean Temperature 84 °F -  
Max Temperature 96 °F 90 °F 106 °F (1977)
Min Temperature 72 °F 67 °F 61 °F (1961)
Cooling Degree Days 18    
Growing Degree Days 34 (Base 50)    
Moisture  
Dew Point 59 °F    
Average Humidity 46    
Maximum Humidity 66    
Minimum Humidity 23    
Precipitation  
Precipitation 0.07 in - - ()
Sea Level Pressure  
Sea Level Pressure 30.07 in    
Wind  
Wind Speed 1 mph (SSE)    
Max Wind Speed 23 mph    
Max Gust Speed 43 mph    
Visibility 10 miles    
Events Rain , Thunderstorm    
Averages and records for this station are not official NWS values.
T = Trace of Precipitation, MM = Missing Value Source: NWS Daily Summary

Daily Weather History Graph

Daily Weather History Graph

Search for Another Location

Airport or City:

Trip Planner

Search our weather history database for the weather conditions in past years. The results will help you decide how hot, cold, wet, or windy it might be!

Date:

Astronomy

Aug. 23, 2013 Rise Set
Actual Time 7:18 AM CDT 8:23 PM CDT
Civil Twilight 6:52 AM CDT 8:48 PM CDT
Nautical Twilight 6:22 AM CDT 9:18 PM CDT
Astronomical Twilight 5:51 AM CDT 9:49 PM CDT
Moon 9:59 PM CDT (8/23) 10:01 AM CDT (8/23)
Length of Visible Light 13h 55m
Length of Day
13h 04m
Waning Gibbous, 91% of the Moon is Illuminated
Aug 23
Waning Gibbous
Aug 28
Last Quarter
Sep 5
New
Sep 12
First Quarter
Sep 19
Full

Hourly Weather History & Observations

Time (CDT) Temp. Heat Index Dew Point Humidity Pressure Visibility Wind Dir Wind Speed Gust Speed Precip Events Conditions
12:15 AM 83.3 °F 83.1 °F 58.5 °F 43% 30.09 in 10.0 mi Calm Calm - N/A   Clear
12:35 AM 82.8 °F 82.7 °F 59.0 °F 44% 30.09 in 10.0 mi Calm Calm - N/A   Clear
12:55 AM 82.0 °F 82.2 °F 59.4 °F 46% 30.09 in 10.0 mi Calm Calm - N/A   Clear
1:15 AM 81.5 °F 81.8 °F 59.5 °F 47% 30.09 in 10.0 mi Calm Calm - N/A   Clear
1:35 AM 81.1 °F 81.5 °F 59.4 °F 47% 30.09 in 10.0 mi Calm Calm - N/A   Clear
1:55 AM 80.8 °F 81.3 °F 59.5 °F 48% 30.09 in 10.0 mi Calm Calm - N/A   Clear
2:15 AM 80.4 °F 81.1 °F 59.9 °F 49% 30.09 in 10.0 mi Calm Calm - N/A   Clear
2:35 AM 79.7 °F - 59.9 °F 51% 30.09 in 10.0 mi Calm Calm - N/A   Clear
2:55 AM 79.2 °F - 59.9 °F 52% 30.08 in 10.0 mi Calm Calm - N/A   Clear
3:15 AM 78.6 °F - 59.9 °F 52% 30.08 in 10.0 mi Calm Calm - N/A   Clear
3:35 AM 77.9 °F - 59.5 °F 53% 30.08 in 10.0 mi Calm Calm - N/A   Clear
3:55 AM 77.5 °F - 59.4 °F 53% 30.08 in 10.0 mi Calm Calm - N/A   Clear
4:15 AM 77.5 °F - 59.2 °F 53% 30.07 in 10.0 mi Calm Calm - N/A   Clear
4:35 AM 77.4 °F - 59.2 °F 53% 30.07 in 10.0 mi Calm Calm - N/A   Clear
4:55 AM 77.0 °F - 59.2 °F 54% 30.07 in 10.0 mi Calm Calm - N/A   Clear
5:15 AM 77.0 °F - 59.0 °F 54% 30.07 in 10.0 mi Calm Calm - N/A   Clear
5:35 AM 76.6 °F - 59.0 °F 54% 30.08 in 10.0 mi Calm Calm - N/A   Clear
5:55 AM 77.0 °F - 59.0 °F 54% 30.08 in 10.0 mi Calm Calm - N/A   Clear
6:15 AM 74.7 °F - 59.2 °F 58% 30.08 in 10.0 mi Calm Calm - N/A   Clear
6:35 AM 73.8 °F - 59.2 °F 60% 30.09 in 10.0 mi Calm Calm - N/A   Clear
6:55 AM 73.4 °F - 59.0 °F 61% 30.10 in 10.0 mi Calm Calm - N/A   Clear
7:15 AM 72.1 °F - 60.1 °F 66% 30.10 in 10.0 mi Calm Calm - N/A   Clear
7:35 AM 72.5 °F - 59.5 °F 64% 30.10 in 10.0 mi Calm Calm - N/A   Clear
7:55 AM 73.2 °F - 59.0 °F 61% 30.11 in 10.0 mi Calm Calm - N/A   Clear
8:15 AM 74.3 °F - 58.5 °F 58% 30.12 in 10.0 mi Calm Calm - N/A   Clear
8:35 AM 74.7 °F - 58.5 °F 57% 30.12 in 10.0 mi Calm Calm - N/A   Clear
8:55 AM 76.5 °F - 59.0 °F 55% 30.12 in 10.0 mi Calm Calm - N/A   Clear
9:15 AM 78.4 °F - 59.9 °F 53% 30.12 in 10.0 mi Calm Calm - N/A   Clear
9:35 AM 80.1 °F 80.9 °F 59.9 °F 50% 30.12 in 10.0 mi Calm Calm - N/A   Clear
9:55 AM 81.7 °F 82.3 °F 60.8 °F 49% 30.12 in 10.0 mi Calm Calm - N/A   Clear
10:15 AM 83.7 °F 83.9 °F 60.8 °F 46% 30.12 in 10.0 mi Calm Calm - N/A   Clear
10:35 AM 85.5 °F 85.2 °F 60.3 °F 42% 30.12 in 10.0 mi South 12.7 mph - N/A   Clear
10:55 AM 86.9 °F 86.3 °F 59.4 °F 39% 30.13 in 10.0 mi Calm Calm - N/A   Clear
11:15 AM 88.5 °F 87.5 °F 58.6 °F 36% 30.13 in 10.0 mi Calm Calm - N/A   Clear
11:35 AM 88.7 °F 87.1 °F 56.5 °F 33% 30.12 in 10.0 mi Calm Calm - N/A   Clear
11:55 AM 89.1 °F 87.5 °F 56.7 °F 33% 30.12 in 10.0 mi Calm Calm - N/A   Clear
12:15 PM 88.5 °F 87.1 °F 56.5 °F 34% 30.12 in 10.0 mi South 6.9 mph - N/A   Clear
12:35 PM 88.0 °F 86.9 °F 58.1 °F 36% 30.12 in 10.0 mi Calm Calm - N/A   Clear
12:55 PM 88.9 °F 87.5 °F 57.4 °F 34% 30.11 in 10.0 mi Calm Calm - N/A   Clear
1:15 PM 89.4 °F 88.2 °F 57.2 °F 34% 30.10 in 10.0 mi Calm Calm - N/A   Clear
1:35 PM 91.4 °F 89.6 °F 55.8 °F 30% 30.09 in 10.0 mi Calm Calm - N/A   Clear
1:55 PM 92.7 °F 90.6 °F 55.2 °F 28% 30.08 in 10.0 mi SE 4.6 mph - N/A   Clear
2:15 PM 92.5 °F 90.4 °F 54.5 °F 28% 30.07 in 10.0 mi Calm Calm - N/A   Clear
2:35 PM 94.1 °F 91.9 °F 53.8 °F 26% 30.07 in 10.0 mi Calm Calm - N/A   Clear
2:55 PM 93.9 °F 91.7 °F 54.1 °F 26% 30.06 in 10.0 mi SE 8.1 mph - N/A   Clear
3:15 PM 94.5 °F 92.1 °F 53.6 °F 25% 30.05 in 10.0 mi Calm Calm - N/A   Clear
3:35 PM 93.0 °F 90.6 °F 53.4 °F 26% 30.03 in 10.0 mi South 11.5 mph - N/A   Clear
3:55 PM 95.2 °F - 52.9 °F 24% 30.02 in 10.0 mi South 6.9 mph 20.7 mph N/A   Clear
4:15 PM 95.5 °F - 52.9 °F 24% 30.01 in 10.0 mi Calm Calm - N/A   Clear
4:35 PM 95.9 °F - 52.5 °F 23% 30.01 in 10.0 mi Calm Calm - N/A   Clear
4:55 PM 94.6 °F - 51.8 °F 23% 29.99 in 10.0 mi Calm Calm - N/A   Clear
5:15 PM 95.0 °F - 51.6 °F 23% 30.00 in 10.0 mi Calm Calm - N/A Thunderstorm Clear
5:35 PM 89.6 °F 88.4 °F 57.9 °F 34% 30.01 in 2.0 mi South 23.0 mph - N/A   Haze
5:55 PM 78.6 °F - 65.1 °F 63% 30.02 in 5.0 mi South 13.8 mph 42.6 mph 0.07 in Rain , Thunderstorm Thunderstorms and Rain
6:15 PM 81.5 °F 82.9 °F 63.7 °F 55% 30.03 in 10.0 mi Calm Calm - N/A   Scattered Clouds
6:35 PM 83.8 °F 83.8 °F 59.5 °F 44% 30.02 in 10.0 mi Calm Calm - N/A Thunderstorm Clear
6:55 PM 84.2 °F 84.4 °F 60.6 °F 45% 30.03 in 10.0 mi Calm Calm - N/A Rain , Thunderstorm Light Thunderstorms and Rain
7:15 PM 82.6 °F 82.3 °F 57.9 °F 43% 30.03 in 10.0 mi Calm Calm - N/A Rain Light Rain
7:35 PM 82.6 °F 82.5 °F 58.5 °F 44% 30.03 in 10.0 mi Calm Calm - N/A   Light Drizzle
7:55 PM 83.7 °F 84.1 °F 61.7 °F 47% 30.03 in 10.0 mi Calm Calm - N/A   Clear
8:15 PM 83.1 °F 83.9 °F 62.2 °F 49% 30.03 in 10.0 mi Calm Calm - N/A   Clear
8:35 PM 82.6 °F 83.6 °F 62.6 °F 51% 30.02 in 10.0 mi Calm Calm - N/A   Clear
8:55 PM 81.5 °F 83.1 °F 64.6 °F 56% 30.03 in 10.0 mi Calm Calm - N/A   Clear
9:15 PM 82.0 °F 83.3 °F 63.5 °F 53% 30.05 in 10.0 mi Calm Calm - N/A   Clear
9:35 PM 82.4 °F 83.7 °F 63.7 °F 53% 30.07 in 10.0 mi Calm Calm - N/A   Clear
9:55 PM 81.7 °F 83.2 °F 63.9 °F 55% 30.08 in 10.0 mi Calm Calm - N/A   Clear
10:15 PM 80.6 °F 82.2 °F 63.9 °F 57% 30.08 in 10.0 mi Calm Calm - N/A   Clear
10:35 PM 79.7 °F - 64.8 °F 60% 30.08 in 10.0 mi Calm Calm - N/A   Clear
10:55 PM 79.2 °F - 64.6 °F 61% 30.08 in 10.0 mi Calm Calm - N/A   Clear
11:15 PM 79.2 °F - 64.4 °F 60% 30.08 in 10.0 mi Calm Calm - N/A   Clear
11:35 PM 78.8 °F - 64.4 °F 61% 30.07 in 10.0 mi Calm Calm - N/A   Clear
11:55 PM 78.3 °F - 64.6 °F 63% 30.07 in 10.0 mi Calm Calm - N/A   Clear